TimePDT,TemperatureF,Dew PointF,Humidity,Sea Level PressureIn,VisibilityMPH,Wind Direction,Wind SpeedMPH,Gust SpeedMPH,PrecipitationIn,Events,Conditions,WindDirDegrees,DateUTC
12:15 AM,59.0,44.6,59,30.23,10.0,WSW,4.6,-,N/A,,Clear,240,2013-07-27 07:15:00
12:35 AM,57.2,44.6,63,30.23,10.0,Calm,Calm,-,N/A,,Clear,0,2013-07-27 07:35:00
12:55 AM,57.2,44.6,63,30.23,10.0,South,6.9,-,N/A,,Clear,190,2013-07-27 07:55:00
1:15 AM,55.4,44.6,67,30.23,10.0,SSE,5.8,-,N/A,,Clear,150,2013-07-27 08:15:00
1:35 AM,53.6,42.8,67,30.23,10.0,NNE,8.1,-,N/A,,Clear,20,2013-07-27 08:35:00
1:55 AM,53.6,44.6,72,30.23,10.0,North,6.9,-,N/A,,Clear,350,2013-07-27 08:55:00
2:15 AM,53.6,44.6,72,30.23,10.0,NNW,4.6,-,N/A,,Clear,340,2013-07-27 09:15:00
2:35 AM,51.8,42.8,71,30.23,10.0,Calm,Calm,-,N/A,,Clear,0,2013-07-27 09:35:00
2:55 AM,48.2,42.8,82,30.23,10.0,North,3.5,-,N/A,,Clear,350,2013-07-27 09:55:00
3:15 AM,48.2,42.8,82,30.24,10.0,Calm,Calm,-,N/A,,Clear,0,2013-07-27 10:15:00
3:35 AM,48.2,41.0,76,30.23,10.0,Calm,Calm,-,N/A,,Clear,0,2013-07-27 10:35:00
3:55 AM,46.4,39.2,76,30.24,10.0,Calm,Calm,-,N/A,,Clear,0,2013-07-27 10:55:00
4:15 AM,46.4,39.2,76,30.23,10.0,Calm,Calm,-,N/A,,Clear,0,2013-07-27 11:15:00
4:35 AM,46.4,39.2,76,30.23,10.0,North,3.5,-,N/A,,Clear,350,2013-07-27 11:35:00
4:55 AM,44.6,39.2,81,30.23,10.0,NNW,5.8,-,N/A,,Clear,340,2013-07-27 11:55:00
5:15 AM,44.6,39.2,81,30.23,10.0,NNW,8.1,-,N/A,,Clear,340,2013-07-27 12:15:00
5:35 AM,44.6,39.2,81,30.23,10.0,NNW,6.9,-,N/A,,Clear,340,2013-07-27 12:35:00
5:55 AM,44.6,39.2,81,30.23,10.0,NNW,6.9,-,N/A,,Clear,340,2013-07-27 12:55:00
6:15 AM,46.4,39.2,76,30.24,10.0,NNW,8.1,-,N/A,,Clear,340,2013-07-27 13:15:00
6:35 AM,48.2,42.8,82,30.24,10.0,North,5.8,-,N/A,,Clear,350,2013-07-27 13:35:00
6:55 AM,51.8,42.8,71,30.23,10.0,NNW,5.8,-,N/A,,Clear,340,2013-07-27 13:55:00
7:15 AM,53.6,44.6,72,30.23,10.0,NNW,5.8,-,N/A,,Clear,340,2013-07-27 14:15:00
7:35 AM,59.0,46.4,63,30.23,10.0,NW,4.6,-,N/A,,Clear,320,2013-07-27 14:35:00
7:55 AM,62.6,46.4,55,30.23,10.0,Calm,Calm,-,N/A,,Clear,0,2013-07-27 14:55:00
8:15 AM,62.6,46.4,55,30.23,10.0,NE,3.5,-,N/A,,Clear,40,2013-07-27 15:15:00
8:35 AM,64.4,46.4,52,30.22,10.0,NE,3.5,-,N/A,,Clear,50,2013-07-27 15:35:00
8:55 AM,69.8,46.4,43,30.22,10.0,NW,3.5,-,N/A,,Clear,310,2013-07-27 15:55:00
9:15 AM,71.6,46.4,41,30.21,10.0,Calm,Calm,-,N/A,,Clear,0,2013-07-27 16:15:00
9:35 AM,73.4,46.4,38,30.21,10.0,NNW,3.5,-,N/A,,Clear,340,2013-07-27 16:35:00
9:55 AM,73.4,46.4,38,30.20,10.0,Calm,Calm,-,N/A,,Clear,0,2013-07-27 16:55:00
10:15 AM,73.4,46.4,38,30.19,10.0,Calm,Calm,-,N/A,,Clear,0,2013-07-27 17:15:00
10:35 AM,75.2,46.4,36,30.18,10.0,East,4.6,-,N/A,,Clear,100,2013-07-27 17:35:00
10:55 AM,77.0,44.6,32,30.18,10.0,Calm,Calm,-,N/A,,Clear,0,2013-07-27 17:55:00
11:15 AM,80.6,46.4,30,30.17,10.0,South,4.6,-,N/A,,Clear,170,2013-07-27 18:15:00
11:35 AM,80.6,44.6,28,30.17,10.0,SW,4.6,-,N/A,,Clear,220,2013-07-27 18:35:00
11:55 AM,82.4,44.6,26,30.16,10.0,SSW,6.9,-,N/A,,Clear,200,2013-07-27 18:55:00
12:15 PM,82.4,44.6,26,30.16,10.0,South,5.8,-,N/A,,Clear,190,2013-07-27 19:15:00
12:35 PM,82.4,44.6,26,30.15,10.0,SE,8.1,-,N/A,,Clear,140,2013-07-27 19:35:00
12:55 PM,84.2,42.8,23,30.14,10.0,SSE,5.8,-,N/A,,Clear,160,2013-07-27 19:55:00
1:15 PM,86.0,42.8,22,30.14,10.0,Calm,Calm,-,N/A,,Clear,0,2013-07-27 20:15:00
1:35 PM,84.2,41.0,22,30.13,10.0,East,4.6,-,N/A,,Clear,100,2013-07-27 20:35:00
1:55 PM,86.0,39.2,19,30.12,10.0,SE,4.6,-,N/A,,Clear,140,2013-07-27 20:55:00
2:15 PM,86.0,39.2,19,30.11,10.0,SE,5.8,-,N/A,,Clear,130,2013-07-27 21:15:00
2:35 PM,84.2,39.2,20,30.10,10.0,SE,8.1,-,N/A,,Partly Cloudy,130,2013-07-27 21:35:00
2:55 PM,87.8,42.8,21,30.09,10.0,South,6.9,-,N/A,,Mostly Cloudy,170,2013-07-27 21:55:00
3:15 PM,87.8,42.8,21,30.08,10.0,South,6.9,17.3,N/A,,Partly Cloudy,180,2013-07-27 22:15:00
3:35 PM,87.8,42.8,21,30.07,10.0,SSW,8.1,16.1,N/A,,Clear,200,2013-07-27 22:35:00
3:55 PM,89.6,42.8,20,30.06,10.0,West,11.5,16.1,N/A,,Clear,260,2013-07-27 22:55:00
4:15 PM,89.6,42.8,20,30.05,10.0,SW,9.2,16.1,N/A,,Scattered Clouds,220,2013-07-27 23:15:00
4:35 PM,86.0,42.8,22,30.05,10.0,North,6.9,16.1,N/A,,Scattered Clouds,360,2013-07-27 23:35:00
4:55 PM,86.0,42.8,22,30.04,10.0,West,12.7,-,N/A,,Partly Cloudy,270,2013-07-27 23:55:00
5:15 PM,87.8,41.0,19,30.04,10.0,West,12.7,-,N/A,,Partly Cloudy,280,2013-07-28 00:15:00
5:35 PM,87.8,39.2,18,30.03,10.0,WNW,9.2,-,N/A,,Clear,290,2013-07-28 00:35:00
5:55 PM,87.8,39.2,18,30.03,10.0,West,15.0,18.4,N/A,,Clear,280,2013-07-28 00:55:00
6:15 PM,87.8,37.4,17,30.02,10.0,West,9.2,-,N/A,,Clear,270,2013-07-28 01:15:00
6:35 PM,87.8,39.2,18,30.02,10.0,WNW,13.8,-,N/A,,Clear,290,2013-07-28 01:35:00
6:55 PM,84.2,41.0,22,30.02,10.0,West,9.2,-,N/A,,Clear,280,2013-07-28 01:55:00
7:15 PM,84.2,41.0,22,30.02,10.0,WNW,9.2,-,N/A,,Partly Cloudy,290,2013-07-28 02:15:00
7:35 PM,82.4,42.8,25,30.02,9.0,WNW,9.2,-,N/A,,Partly Cloudy,300,2013-07-28 02:35:00
7:55 PM,80.6,42.8,26,30.02,8.0,NW,8.1,-,N/A,,Partly Cloudy,310,2013-07-28 02:55:00
8:15 PM,78.8,39.2,24,30.02,10.0,WNW,8.1,-,N/A,,Partly Cloudy,300,2013-07-28 03:15:00
8:35 PM,75.2,39.2,27,30.02,10.0,WNW,11.5,-,N/A,,Clear,300,2013-07-28 03:35:00
8:55 PM,73.4,39.2,29,30.03,10.0,WNW,8.1,-,N/A,,Clear,300,2013-07-28 03:55:00
9:15 PM,68.0,39.2,35,30.04,10.0,North,6.9,-,N/A,,Partly Cloudy,10,2013-07-28 04:15:00
9:35 PM,64.4,39.2,40,30.05,10.0,NW,5.8,-,N/A,,Partly Cloudy,320,2013-07-28 04:35:00
9:55 PM,66.2,39.2,37,30.05,10.0,NW,6.9,-,N/A,,Partly Cloudy,310,2013-07-28 04:55:00
10:15 PM,66.2,39.2,37,-9999,10.0,NW,6.9,-,N/A,,Clear,320,2013-07-28 05:15:00
10:35 PM,69.8,33.8,27,30.05,10.0,North,10.4,-,N/A,,Partly Cloudy,360,2013-07-28 05:35:00
10:55 PM,69.8,33.8,27,30.06,10.0,North,10.4,-,N/A,,Scattered Clouds,350,2013-07-28 05:55:00
11:15 PM,68.0,33.8,28,30.05,10.0,North,10.4,-,N/A,,Scattered Clouds,350,2013-07-28 06:15:00
11:35 PM,66.2,33.8,30,30.06,10.0,NNW,11.5,-,N/A,,Scattered Clouds,330,2013-07-28 06:35:00
11:55 PM,68.0,33.8,28,30.06,10.0,North,12.7,-,N/A,,Mostly Cloudy,360,2013-07-28 06:55:00